Location: Losili
(4.4086°N, 32.7049°E)
Time: 18:57:10
(UTC+00:00)

Cosmos 1624 Rocket - Pass Details

Date: 18 September 2019
Orbit: 757 x 784 km, 74.0° (Epoch: 20 October)

Event Time Altitude Azimuth Distance (km) Brightness Sun altitude
Rises 16:26:40 0° 179° (S) 3,233 7.2 -10.6°
Reaches altitude 10° 16:29:10 10° 173° (S) 2,301 6.4 -11.3°
Maximum altitude 16:34:05 43° 102° (ESE) 1,062 4.3 -12.5°
Drops below altitude 10° 16:38:58 10° 31° (NNE) 2,281 6.2 -13.7°
Sets 16:41:25 0° 25° (NNE) 3,202 7.0 -14.3°
